QPF
0.08 0.08 0.07 0.06 0.04 0.04 0.06 0.08 0.09 0.09 0.08 0.07 0.06 0.05 0.06 0.06 0.06 0.05 0.04 0.05 0.04 0.04 0.04 0.04 0.05 0.06 0.06 0.06 0.07 0.09 0.10 0.13 0.17 0.21 0.23 0.22 0.20 0.17
0.10 0.11 0.10 0.08 0.06 0.06 0.05 0.06 0.08 0.09 0.07 0.06 0.06 0.07 0.07 0.05 0.06 0.04 0.04 0.05 0.04 0.03 0.04 0.04 0.04 0.04 0.04 0.05 0.05 0.07 0.08 0.10 0.14 0.18 0.20 0.21 0.20 0.18
0.10 0.12 0.12 0.11 0.10 0.08 0.07 0.07 0.08 0.08 0.07 0.05 0.06 0.06 0.06 0.07 0.07 0.06 0.06 0.05 0.04 0.03 0.03 0.03 0.03 0.03 0.03 0.03 0.04 0.05 0.06 0.08 0.11 0.14 0.18 0.22 0.22 0.19
0.08 0.10 0.09 0.09 0.08 0.08 0.09 0.09 0.09 0.10 0.09 0.09 0.11 0.11 0.07 0.06 0.06 0.05 0.03 0.03 0.03 0.04 0.04 0.04 0.05 0.05 0.05 0.06 0.07 0.07 0.07 0.08 0.09 0.10 0.12 0.15 0.20 0.24
0.06 0.07 0.07 0.08 0.07 0.08 0.09 0.10 0.09 0.09 0.09 0.09 0.11 0.11 0.08 0.07 0.06 0.05 0.04 0.04 0.03 0.03 0.04 0.04 0.04 0.05 0.06 0.07 0.07 0.06 0.05 0.04 0.05 0.06 0.08 0.10 0.13 0.16
0.04 0.05 0.06 0.06 0.06 0.07 0.09 0.09 0.09 0.09 0.09 0.09 0.10 0.10 0.09 0.07 0.06 0.05 0.06 0.05 0.05 0.05 0.05 0.04 0.03 0.03 0.03 0.03 0.02 0.02 0.02 0.02 0.04 0.07 0.10 0.11 0.12 0.13
0.03 0.04 0.05 0.07 0.07 0.06 0.08 0.09 0.09 0.09 0.08 0.08 0.07 0.06 0.06 0.06 0.06 0.06 0.07 0.07 0.07 0.05 0.04 0.03 0.02 0.01 0.01 0.01 0.01 0.01 0.02 0.02 0.04 0.07 0.10 0.10 0.09 0.07
0.02 0.03 0.05 0.06 0.07 0.08 0.08 0.09 0.08 0.07 0.07 0.07 0.06 0.06 0.05 0.05 0.04 0.05 0.06 0.06 0.05 0.04 0.03 0.03 0.02 0.01 0.01 0.01 0.01 0.01 0.01 0.02 0.03 0.05 0.06 0.07 0.07 0.07
0.04 0.04 0.04 0.05 0.08 0.11 0.12 0.10 0.08 0.05 0.05 0.05 0.06 0.06 0.06 0.06 0.06 0.06 0.06 0.05 0.05 0.03 0.02 0.02 0.01 0.01 0.02 0.02 0.02 0.02 0.02 0.02 0.01 0.02 0.02 0.03 0.04 0.05
0.05 0.08 0.10 0.11 0.12 0.11 0.07 0.06 0.05 0.04 0.05 0.05 0.05 0.05 0.06 0.06 0.05 0.05 0.05 0.04 0.03 0.01 0.01 0.02 0.02 0.03 0.03 0.03 0.03 0.03 0.04 0.04 0.03 0.02 0.02 0.03 0.03 0.04
0.03 0.05 0.07 0.08 0.09 0.07 0.05 0.04 0.03 0.03 0.04 0.05 0.05 0.05 0.04 0.04 0.03 0.03 0.04 0.03 0.03 0.01 0.01 0.01 0.02 0.04 0.04 0.04 0.03 0.03 0.03 0.03 0.03 0.03 0.03 0.04 0.05 0.05
0.02 0.02 0.03 0.04 0.06 0.05 0.05 0.04 0.03 0.04 0.04 0.04 0.04 0.04 0.03 0.03 0.04 0.03 0.03 0.03 0.03 0.02 0.01 0.01 0.02 0.03 0.04 0.04 0.03 0.03 0.03 0.03 0.03 0.04 0.05 0.08 0.08 0.06
0.02 0.02 0.02 0.02 0.02 0.02 0.03 0.03 0.04 0.04 0.04 0.03 0.03 0.02 0.02 0.02 0.02 0.03 0.03 0.03 0.03 0.02 0.02 0.02 0.02 0.03 0.03 0.03 0.03 0.03 0.03 0.03 0.03 0.03 0.04 0.05 0.07 0.07
0.04 0.03 0.02 0.02 0.01 0.01 0.01 0.01 0.01 0.01 0.01 0.01 0.01 0.01 0.02 0.01 0.02 0.02 0.03 0.03 0.04 0.04 0.03 0.04 0.04 0.04 0.03 0.03 0.03 0.03 0.02 0.02 0.02 0.03 0.04 0.04 0.05 0.05
0.02 0.02 0.01 0.01 0.01 0.01 0.01 0.01 0.01 0.00 0.01 0.01 0.01 0.01 0.01 0.01 0.01 0.02 0.03 0.03 0.03 0.03 0.03 0.04 0.04 0.04 0.04 0.03 0.02 0.02 0.02 0.02 0.02 0.02 0.02 0.03 0.04 0.04
0.01 0.01 0.01 0.01 0.01 0.01 0.01 0.01 0.01 0.01 0.01 0.01 0.01 0.01 0.00 0.00 0.01 0.01 0.01 0.02 0.02 0.02 0.02 0.02 0.02 0.03 0.03 0.03 0.03 0.03 0.02 0.02 0.02 0.02 0.02 0.02 0.03 0.02
0.01 0.01 0.01 0.01 0.01 0.01 0.00 0.00 0.00 0.00 0.01 0.01 0.01 0.01 0.01 0.01 0.00 0.00 0.01 0.01 0.01 0.01 0.02 0.01 0.01 0.01 0.02 0.02 0.02 0.02 0.02 0.02 0.02 0.03 0.03 0.02 0.02 0.01
0.01 0.01 0.00 0.00 0.00 0.00 0.01 0.01 0.01 0.01 0.01 0.01 0.01 0.01 0.01 0.01 0.01 0.01 0.01 0.01 0.01 0.01 0.01 0.01 0.01 0.01 0.01 0.01 0.01 0.01 0.02 0.02 0.03 0.04 0.04 0.03 0.02 0.02
0.01 0.00 0.00 0.00 0.00 0.00 0.01 0.00 0.00 0.00 0.00 0.00 0.00 0.00 0.01 0.01 0.01 0.01 0.00 0.00 0.01 0.01 0.01 0.01 0.01 0.01 0.01 0.01 0.01 0.01 0.01 0.02 0.02 0.02 0.03 0.03 0.02 0.02
0.01 0.01 0.00 0.00 0.00 0.00 0.00 0.00 0.00 0.00 0.00 0.00 0.00 0.00 0.01 0.01 0.01 0.01 0.01 0.01 0.01 0.02 0.01 0.01 0.02 0.01 0.02 0.02 0.02 0.01 0.01 0.01 0.02 0.02 0.02 0.02 0.02 0.02
0.01 0.01 0.01 0.00 0.00 0.00 0.00 0.00 0.00 0.00 0.00 0.00 0.00 0.00 0.01 0.01 0.01 0.01 0.01 0.01 0.02 0.02 0.02 0.01 0.02 0.01 0.01 0.01 0.02 0.01 0.01 0.01 0.02 0.02 0.02 0.02 0.03 0.03
0.02 0.02 0.01 0.01 0.00 0.00 0.00 0.00 0.00 0.00 0.00 0.00 0.01 0.01 0.01 0.02 0.02 0.03 0.02 0.03 0.03 0.03 0.03 0.03 0.03 0.02 0.01 0.01 0.01 0.01 0.01 0.02 0.01 0.01 0.01 0.02 0.02 0.03
0.01 0.01 0.01 0.01 0.00 0.00 0.00 0.00 0.00 0.00 0.00 0.00 0.00 0.00 0.01 0.01 0.02 0.02 0.03 0.03 0.04 0.05 0.05 0.05 0.04 0.03 0.03 0.02 0.02 0.02 0.02 0.02 0.02 0.02 0.02 0.02 0.02 0.02
MSLP
1017.56 1017.56 1017.56 1017.55 1017.47 1017.31 1017.06 1016.75 1016.40 1016.06 1015.76 1015.56 1015.46 1015.46 1015.55 1015.70 1015.86 1016.00 1016.08 1016.09 1016.03 1015.91 1015.74 1015.54 1015.32 1015.07 1014.80 1014.48 1014.11 1013.68 1013.21 1012.72 1012.23 1011.81 1011.49 1011.32 1011.31 1011.48
1017.96 1017.92 1017.89 1017.83 1017.71 1017.53 1017.29 1017.00 1016.70 1016.44 1016.25 1016.16 1016.18 1016.31 1016.52 1016.75 1016.98 1017.15 1017.25 1017.24 1017.15 1016.97 1016.74 1016.48 1016.18 1015.86 1015.51 1015.11 1014.65 1014.12 1013.54 1012.93 1012.33 1011.78 1011.34 1011.06 1010.96 1011.06
1018.42 1018.34 1018.26 1018.14 1017.99 1017.78 1017.53 1017.27 1017.02 1016.84 1016.76 1016.79 1016.93 1017.18 1017.48 1017.80 1018.09 1018.29 1018.40 1018.38 1018.26 1018.06 1017.79 1017.49 1017.17 1016.83 1016.46 1016.05 1015.57 1015.02 1014.40 1013.75 1013.08 1012.46 1011.95 1011.58 1011.41 1011.44
1018.96 1018.83 1018.70 1018.53 1018.33 1018.09 1017.84 1017.60 1017.41 1017.29 1017.29 1017.42 1017.66 1018.00 1018.38 1018.75 1019.07 1019.29 1019.39 1019.37 1019.23 1019.02 1018.75 1018.46 1018.16 1017.86 1017.54 1017.18 1016.76 1016.27 1015.70 1015.07 1014.42 1013.80 1013.26 1012.86 1012.63 1012.61
1019.57 1019.40 1019.22 1019.02 1018.78 1018.53 1018.27 1018.04 1017.88 1017.82 1017.88 1018.06 1018.36 1018.74 1019.14 1019.53 1019.84 1020.05 1020.14 1020.10 1019.96 1019.74 1019.50 1019.26 1019.03 1018.82 1018.60 1018.37 1018.07 1017.71 1017.26 1016.73 1016.16 1015.60 1015.09 1014.69 1014.45 1014.38
1020.24 1020.06 1019.85 1019.62 1019.36 1019.10 1018.84 1018.63 1018.48 1018.44 1018.52 1018.72 1019.02 1019.38 1019.76 1020.12 1020.39 1020.56 1020.60 1020.54 1020.40 1020.20 1020.01 1019.83 1019.70 1019.61 1019.54 1019.46 1019.34 1019.14 1018.86 1018.49 1018.05 1017.60 1017.16 1016.81 1016.57 1016.47
1020.95 1020.77 1020.56 1020.33 1020.07 1019.81 1019.56 1019.35 1019.20 1019.16 1019.22 1019.38 1019.63 1019.94 1020.25 1020.53 1020.72 1020.83 1020.83 1020.73 1020.58 1020.42 1020.27 1020.18 1020.15 1020.19 1020.27 1020.36 1020.41 1020.40 1020.29 1020.10 1019.82 1019.49 1019.16 1018.87 1018.66 1018.57
1021.66 1021.50 1021.31 1021.10 1020.86 1020.62 1020.38 1020.17 1020.02 1019.94 1019.95 1020.05 1020.22 1020.42 1020.63 1020.80 1020.91 1020.93 1020.87 1020.75 1020.60 1020.45 1020.36 1020.33 1020.40 1020.55 1020.76 1020.99 1021.20 1021.34 1021.40 1021.36 1021.23 1021.03 1020.81 1020.60 1020.44 1020.35
1022.32 1022.20 1022.06 1021.88 1021.69 1021.47 1021.25 1021.04 1020.87 1020.75 1020.70 1020.71 1020.77 1020.87 1020.96 1021.02 1021.02 1020.97 1020.85 1020.70 1020.55 1020.42 1020.36 1020.39 1020.52 1020.74 1021.03 1021.35 1021.66 1021.92 1022.09 1022.17 1022.16 1022.07 1021.94 1021.80 1021.69 1021.62
1022.89 1022.82 1022.74 1022.62 1022.47 1022.29 1022.10 1021.89 1021.70 1021.54 1021.42 1021.34 1021.30 1021.28 1021.26 1021.22 1021.14 1021.02 1020.87 1020.70 1020.54 1020.42 1020.38 1020.44 1020.59 1020.84 1021.16 1021.51 1021.85 1022.15 1022.38 1022.52 1022.57 1022.56 1022.50 1022.42 1022.35 1022.30
1023.34 1023.33 1023.31 1023.25 1023.15 1023.02 1022.85 1022.65 1022.45 1022.25 1022.07 1021.92 1021.79 1021.68 1021.57 1021.45 1021.32 1021.16 1020.98 1020.81 1020.65 1020.54 1020.51 1020.56 1020.70 1020.93 1021.22 1021.54 1021.86 1022.14 1022.36 1022.51 1022.59 1022.60 1022.58 1022.53 1022.49 1022.47
1023.66 1023.71 1023.74 1023.74 1023.69 1023.60 1023.45 1023.27 1023.06 1022.84 1022.62 1022.41 1022.23 1022.06 1021.90 1021.74 1021.58 1021.41 1021.23 1021.06 1020.92 1020.82 1020.77 1020.80 1020.91 1021.08 1021.30 1021.55 1021.79 1022.01 1022.19 1022.30 1022.36 1022.37 1022.35 1022.32 1022.30 1022.30
1023.88 1023.97 1024.04 1024.08 1024.07 1024.01 1023.88 1023.71 1023.51 1023.28 1023.04 1022.81 1022.60 1022.41 1022.23 1022.07 1021.91 1021.75 1021.59 1021.45 1021.32 1021.22 1021.16 1021.16 1021.21 1021.30 1021.44 1021.59 1021.75 1021.88 1021.98 1022.04 1022.06 1022.05 1022.02 1021.98 1021.97 1021.98
1024.01 1024.12 1024.21 1024.27 1024.29 1024.24 1024.14 1023.99 1023.79 1023.57 1023.34 1023.12 1022.91 1022.72 1022.56 1022.41 1022.27 1022.15 1022.02 1021.90 1021.79 1021.69 1021.62 1021.58 1021.57 1021.60 1021.64 1021.70 1021.76 1021.81 1021.84 1021.84 1021.82 1021.78 1021.73 1021.69 1021.67 1021.69
1024.09 1024.20 1024.29 1024.35 1024.37 1024.34 1024.25 1024.11 1023.94 1023.74 1023.53 1023.33 1023.15 1022.99 1022.85 1022.74 1022.64 1022.54 1022.45 1022.35 1022.26 1022.16 1022.08 1022.01 1021.95 1021.91 1021.89 1021.87 1021.86 1021.84 1021.82 1021.78 1021.72 1021.66 1021.60 1021.55 1021.52 1021.53
1024.14 1024.22 1024.29 1024.34 1024.35 1024.32 1024.25 1024.13 1023.98 1023.81 1023.64 1023.47 1023.33 1023.20 1023.10 1023.02 1022.95 1022.89 1022.82 1022.74 1022.66 1022.56 1022.47 1022.37 1022.28 1022.20 1022.13 1022.06 1022.01 1021.96 1021.90 1021.84 1021.77 1021.71 1021.64 1021.59 1021.55 1021.54
1024.16 1024.21 1024.26 1024.28 1024.29 1024.26 1024.20 1024.10 1023.98 1023.85 1023.71 1023.58 1023.47 1023.38 1023.31 1023.26 1023.21 1023.16 1023.10 1023.03 1022.95 1022.85 1022.74 1022.63 1022.52 1022.41 1022.32 1022.24 1022.17 1022.11 1022.05 1021.99 1021.93 1021.87 1021.81 1021.76 1021.71 1021.68
1024.18 1024.19 1024.21 1024.22 1024.21 1024.19 1024.14 1024.07 1023.98 1023.89 1023.79 1023.70 1023.62 1023.55 1023.50 1023.45 1023.41 1023.36 1023.29 1023.22 1023.12 1023.01 1022.89 1022.77 1022.65 1022.55 1022.45 1022.37 1022.31 1022.26 1022.21 1022.17 1022.13 1022.09 1022.04 1021.98 1021.93 1021.89
1024.18 1024.17 1024.17 1024.17 1024.17 1024.16 1024.13 1024.09 1024.05 1023.99 1023.92 1023.86 1023.80 1023.75 1023.69 1023.64 1023.58 1023.51 1023.43 1023.33 1023.22 1023.09 1022.97 1022.84 1022.72 1022.62 1022.53 1022.46 1022.41 1022.38 1022.35 1022.33 1022.30 1022.27 1022.23 1022.18 1022.12 1022.06
1024.18 1024.16 1024.16 1024.17 1024.19 1024.20 1024.21 1024.21 1024.20 1024.18 1024.15 1024.10 1024.05 1023.99 1023.92 1023.85 1023.76 1023.66 1023.54 1023.42 1023.28 1023.14 1023.01 1022.88 1022.76 1022.67 1022.59 1022.53 1022.49 1022.46 1022.44 1022.42 1022.40 1022.37 1022.33 1022.28 1022.21 1022.14
1024.19 1024.18 1024.20 1024.24 1024.29 1024.34 1024.40 1024.44 1024.47 1024.48 1024.47 1024.43 1024.38 1024.30 1024.21 1024.10 1023.97 1023.83 1023.68 1023.53 1023.37 1023.22 1023.08 1022.95 1022.83 1022.74 1022.66 1022.60 1022.55 1022.52 1022.49 1022.45 1022.42 1022.37 1022.31 1022.25 1022.17 1022.08
1024.19 1024.22 1024.28 1024.37 1024.48 1024.58 1024.69 1024.78 1024.84 1024.88 1024.88 1024.84 1024.78 1024.68 1024.55 1024.40 1024.23 1024.05 1023.87 1023.69 1023.52 1023.35 1023.20 1023.07 1022.95 1022.85 1022.77 1022.69 1022.62 1022.56 1022.49 1022.42 1022.35 1022.27 1022.18 1022.08 1021.98 1021.88
1024.22 1024.30 1024.43 1024.58 1024.74 1024.91 1025.07 1025.20 1025.30 1025.35 1025.35 1025.31 1025.22 1025.09 1024.93 1024.74 1024.53 1024.32 1024.11 1023.91 1023.72 1023.55 1023.40 1023.26 1023.13 1023.02 1022.92 1022.81 1022.70 1022.59 1022.47 1022.35 1022.22 1022.08 1021.95 1021.81 1021.68 1021.55
Thickness
5739 5738 5737 5737 5737 5736 5735 5732 5726 5721 5719 5720 5719 5718 5716 5712 5709 5707 5704 5701 5699 5697 5696 5695 5694 5692 5691 5690 5689 5688 5687 5686 5684 5683 5682 5681 5679 5678
5736 5734 5734 5735 5734 5732 5731 5730 5728 5723 5717 5716 5714 5711 5708 5706 5701 5699 5696 5694 5691 5689 5687 5686 5685 5683 5682 5680 5680 5679 5678 5676 5675 5674 5673 5672 5671 5670
5732 5731 5730 5729 5729 5728 5727 5725 5723 5720 5713 5710 5708 5704 5700 5697 5694 5692 5690 5687 5683 5680 5678 5676 5674 5673 5671 5670 5669 5667 5666 5665 5664 5663 5662 5661 5661 5660
5728 5727 5726 5725 5724 5723 5721 5720 5717 5715 5710 5703 5700 5697 5693 5690 5688 5686 5684 5681 5677 5672 5669 5667 5665 5663 5661 5659 5657 5656 5655 5653 5652 5651 5650 5650 5649 5648
5724 5722 5721 5720 5718 5717 5715 5714 5712 5710 5706 5700 5695 5690 5687 5684 5681 5678 5676 5672 5671 5665 5661 5658 5655 5653 5651 5649 5646 5644 5643 5642 5640 5639 5638 5637 5636 5636
5719 5717 5716 5714 5712 5711 5709 5707 5706 5703 5699 5695 5690 5685 5681 5677 5674 5671 5667 5665 5663 5659 5655 5652 5647 5644 5641 5639 5636 5634 5632 5630 5629 5627 5626 5625 5623 5622
5712 5710 5708 5705 5702 5702 5702 5700 5699 5696 5693 5688 5683 5678 5674 5669 5666 5664 5661 5658 5654 5651 5649 5646 5641 5638 5634 5629 5626 5623 5621 5619 5617 5615 5613 5612 5611 5609
5706 5704 5702 5699 5695 5692 5690 5688 5687 5687 5684 5681 5676 5671 5666 5663 5659 5658 5654 5651 5646 5643 5640 5637 5634 5630 5625 5621 5615 5613 5610 5607 5605 5603 5601 5599 5597 5595
5698 5697 5696 5692 5690 5688 5684 5681 5678 5675 5673 5672 5667 5663 5659 5655 5652 5650 5644 5641 5636 5634 5631 5627 5624 5620 5616 5610 5605 5602 5599 5596 5593 5590 5588 5586 5584 5582
5690 5688 5686 5682 5680 5678 5677 5674 5670 5666 5664 5661 5657 5653 5649 5646 5643 5641 5637 5633 5629 5625 5621 5618 5615 5611 5607 5601 5595 5591 5588 5585 5582 5578 5576 5573 5571 5569
5681 5678 5676 5673 5667 5668 5668 5665 5661 5656 5651 5647 5644 5640 5637 5635 5634 5634 5631 5629 5623 5619 5613 5610 5607 5603 5599 5594 5587 5582 5578 5574 5571 5568 5564 5561 5559 5558
5672 5668 5662 5660 5657 5657 5658 5655 5651 5647 5644 5641 5636 5632 5630 5627 5624 5622 5622 5620 5615 5611 5605 5600 5598 5594 5589 5585 5580 5575 5570 5565 5561 5558 5554 5551 5549 5548
5666 5661 5654 5648 5647 5646 5645 5644 5639 5637 5637 5634 5631 5627 5623 5619 5616 5612 5608 5607 5604 5600 5595 5590 5587 5584 5579 5575 5571 5567 5563 5559 5555 5550 5546 5542 5539 5537
5657 5652 5644 5639 5637 5636 5635 5631 5630 5629 5630 5627 5623 5619 5615 5611 5606 5602 5597 5593 5589 5586 5581 5578 5576 5571 5569 5565 5562 5558 5555 5551 5548 5544 5541 5535 5532 5528
5645 5638 5634 5631 5630 5629 5624 5623 5623 5624 5622 5618 5613 5609 5605 5600 5597 5592 5588 5584 5580 5577 5572 5567 5565 5563 5560 5558 5555 5551 5548 5545 5541 5537 5534 5531 5528 5524
5638 5632 5628 5625 5623 5620 5618 5618 5616 5612 5611 5607 5603 5598 5595 5591 5588 5584 5581 5578 5574 5570 5563 5558 5555 5552 5552 5548 5547 5544 5540 5537 5533 5530 5527 5524 5521 5518
5631 5629 5626 5623 5619 5616 5613 5609 5606 5603 5599 5596 5593 5589 5585 5581 5577 5574 5570 5568 5565 5561 5557 5552 5548 5545 5542 5539 5537 5535 5532 5529 5526 5523 5518 5517 5515 5512
5624 5623 5619 5615 5612 5608 5604 5600 5596 5592 5588 5585 5582 5578 5575 5572 5568 5565 5561 5558 5555 5552 5549 5545 5542 5539 5536 5533 5526 5525 5524 5522 5519 5516 5513 5511 5509 5506
5617 5615 5610 5606 5602 5598 5594 5590 5586 5581 5577 5575 5572 5568 5565 5562 5559 5556 5553 5549 5547 5544 5541 5537 5534 5531 5528 5527 5523 5515 5515 5513 5511 5509 5507 5505 5502 5500
5610 5606 5601 5597 5593 5589 5585 5581 5577 5572 5569 5566 5563 5559 5556 5553 5550 5547 5544 5539 5537 5535 5533 5530 5525 5521 5518 5516 5515 5512 5506 5505 5503 5501 5499 5498 5496 5491
5602 5598 5593 5589 5584 5579 5575 5571 5567 5564 5559 5556 5554 5549 5546 5543 5541 5538 5535 5528 5526 5527 5524 5522 5517 5510 5510 5509 5508 5507 5503 5497 5494 5492 5491 5491 5489 5487
5593 5589 5584 5579 5574 5570 5566 5562 5559 5555 5550 5547 5544 5540 5538 5535 5532 5528 5527 5524 5521 5519 5516 5514 5510 5508 5506 5504 5502 5501 5498 5494 5489 5486 5482 5481 5480 5480
5585 5580 5575 5570 5566 5562 5558 5554 5550 5547 5542 5538 5535 5532 5529 5526 5523 5521 5518 5516 5514 5511 5509 5507 5505 5502 5500 5498 5496 5494 5492 5489 5487 5484 5481 5476 5473 5470